Weather History for Waskish, MN

Change the Weather History Date:

Sunday, November 17, 2013

  Actual Average (KBDE) Record (KBDE)
Temperature  
Mean Temperature 32 °F -  
Max Temperature 39 °F 35 °F 68 °F (1953)
Min Temperature 24 °F 20 °F -9 °F (1959)
Degree Days  
Heating Degree Days 34    
Moisture  
Dew Point 31 °F    
Average Humidity 93    
Maximum Humidity 100    
Minimum Humidity 80    
Precipitation  
Precipitation 0.19 in - - ()
Sea Level Pressure  
Sea Level Pressure 29.45 in    
Wind  
Wind Speed 7 mph (NW)    
Max Wind Speed 17 mph    
Max Gust Speed 28 mph    
Visibility 8 miles    
Events Rain , Snow    
Averages and records for this station are not official NWS values.
T = Trace of Precipitation, MM = Missing Value Source: NWS Daily Summary

Daily Weather History Graph

Daily Weather History Graph

Search for Another Location

Airport:

Trip Planner

Search our weather history database for the weather conditions in past years. The results will help you decide how hot, cold, wet, or windy it might be!

Date:

Astronomy

Nov. 17, 2013 Rise Set
Actual Time 7:28 AM CST 4:37 PM CST
Civil Twilight 6:54 AM CST 5:11 PM CST
Nautical Twilight 6:16 AM CST 5:49 PM CST
Astronomical Twilight 5:39 AM CST 6:26 PM CST
Moon 4:55 PM CST (11/17) 7:22 AM CST (11/17)
Length of Visible Light 10h 17m
Length of Day
9h 09m
Full, 100% of the Moon is Illuminated
Nov 17
Full
Nov 25
Last Quarter
Dec 2
New
Dec 9
First Quarter
Dec 17
Full

Hourly Weather History & Observations

Time (CST) Temp. Windchill Dew Point Humidity Pressure Visibility Wind Dir Wind Speed Gust Speed Precip Events Conditions
12:01 AM 39.2 °F 37.0 °F 37.4 °F 93% 29.28 in 2.5 mi ENE 3.5 mph - N/A Rain Rain
12:22 AM 39.2 °F - 39.2 °F 100% 29.27 in 2.5 mi Calm Calm - N/A   Light Drizzle
12:41 AM 39.2 °F - 37.4 °F 93% 29.27 in 2.0 mi Calm Calm - 0.01 in Rain Light Rain
1:01 AM 39.2 °F - 39.2 °F 100% 29.28 in 2.0 mi Calm Calm - 0.01 in Rain Rain
1:22 AM 39.2 °F - 37.4 °F 93% 29.28 in 1.2 mi Calm Calm - 0.05 in Rain Rain
1:41 AM 39.2 °F - 37.4 °F 93% 29.28 in 2.0 mi Calm Calm - 0.09 in Rain Rain
2:01 AM 39.2 °F - 37.4 °F 93% 29.27 in 1.5 mi Calm Calm - 0.01 in Rain Light Rain
2:22 AM 39.2 °F 37.0 °F 37.4 °F 93% 29.27 in 1.8 mi NW 3.5 mph - 0.06 in Rain Rain
2:41 AM 37.4 °F 33.8 °F 37.4 °F 100% 29.27 in 2.5 mi NW 4.6 mph - 0.08 in Rain Light Rain
3:01 AM 37.4 °F 32.8 °F 37.4 °F 100% 29.27 in 4.0 mi NNW 5.8 mph - N/A Rain Light Rain
3:22 AM 37.4 °F 32.8 °F 37.4 °F 100% 29.27 in 5.0 mi NNW 5.8 mph - 0.01 in Rain Light Rain
3:41 AM 37.4 °F 32.8 °F 37.4 °F 100% 29.27 in 7.0 mi NNW 5.8 mph - 0.02 in Rain Light Rain
4:02 AM 37.4 °F 32.1 °F 37.4 °F 100% 29.27 in 7.0 mi NNW 6.9 mph - N/A Rain Light Rain
4:22 AM 37.4 °F 32.8 °F 37.4 °F 100% 29.27 in 7.0 mi North 5.8 mph - N/A   Drizzle
4:41 AM 37.4 °F 32.1 °F 37.4 °F 100% 29.27 in 7.0 mi North 6.9 mph - N/A   Drizzle
5:02 AM 37.4 °F 30.8 °F 35.6 °F 93% 29.27 in 10.0 mi North 9.2 mph - N/A   Light Drizzle
5:22 AM 37.4 °F 33.8 °F 35.6 °F 93% 29.27 in 7.0 mi NNW 4.6 mph - N/A Rain Rain
5:41 AM 37.4 °F 33.8 °F 35.6 °F 93% 29.28 in 7.0 mi NNW 4.6 mph - N/A   Overcast
6:01 AM 35.6 °F 29.9 °F 35.6 °F 100% 29.30 in 7.0 mi NW 6.9 mph - N/A   Overcast
6:22 AM 35.6 °F 30.7 °F 35.6 °F 100% 29.31 in 7.0 mi NW 5.8 mph - N/A   Drizzle
6:41 AM 35.6 °F 28.6 °F 33.8 °F 93% 29.31 in 7.0 mi WNW 9.2 mph - N/A Rain Rain
7:02 AM 35.6 °F 28.6 °F 33.8 °F 93% 29.31 in 5.0 mi NW 9.2 mph - N/A Rain Light Rain
7:22 AM 35.6 °F 28.6 °F 33.8 °F 93% 29.33 in 5.0 mi WNW 9.2 mph - N/A   Drizzle
7:41 AM 33.8 °F 26.4 °F 33.8 °F 100% 29.34 in 7.0 mi WNW 9.2 mph - N/A   Drizzle
8:02 AM 33.8 °F 26.4 °F 33.8 °F 100% 29.34 in 5.0 mi NW 9.2 mph - N/A Snow Light Snow
8:22 AM 33.8 °F 26.4 °F 33.8 °F 100% 29.35 in 10.0 mi NW 9.2 mph - N/A   Overcast
8:41 AM 33.8 °F 27.0 °F 33.8 °F 100% 29.34 in 7.0 mi NW 8.1 mph 16.1 mph N/A Snow Light Snow
9:02 AM 33.8 °F 25.8 °F 33.8 °F 100% 29.35 in 10.0 mi NW 10.4 mph - N/A   Overcast
9:22 AM 33.8 °F 25.3 °F 33.8 °F 100% 29.36 in 7.0 mi NW 11.5 mph 16.1 mph N/A Snow Light Snow
9:41 AM 33.8 °F 26.4 °F 33.8 °F 100% 29.38 in 10.0 mi NW 9.2 mph - N/A   Overcast
10:02 AM 33.8 °F 27.0 °F 33.8 °F 100% 29.38 in 10.0 mi NW 8.1 mph - N/A   Overcast
10:21 AM 35.6 °F 29.2 °F 33.8 °F 93% 29.38 in 10.0 mi NW 8.1 mph - N/A   Overcast
10:41 AM 33.8 °F 27.0 °F 33.8 °F 100% 29.39 in 10.0 mi NW 8.1 mph - N/A   Overcast
11:02 AM 35.6 °F 28.6 °F 33.8 °F 93% 29.39 in 10.0 mi NW 9.2 mph - N/A   Overcast
11:22 AM 35.6 °F 29.2 °F 33.8 °F 93% 29.40 in 10.0 mi NW 8.1 mph - N/A   Overcast
11:41 AM 33.8 °F 26.4 °F 33.8 °F 100% 29.40 in 10.0 mi NNW 9.2 mph 17.3 mph N/A   Overcast
12:02 PM 33.8 °F 25.3 °F 33.8 °F 100% 29.40 in 10.0 mi WNW 11.5 mph - N/A   Overcast
12:21 PM 33.8 °F 26.4 °F 32.0 °F 93% 29.42 in 10.0 mi WNW 9.2 mph 17.3 mph N/A   Overcast
12:41 PM 33.8 °F 26.4 °F 32.0 °F 93% 29.42 in 10.0 mi WNW 9.2 mph - N/A   Overcast
1:02 PM 33.8 °F 24.8 °F 32.0 °F 93% 29.43 in 5.0 mi WNW 12.7 mph 18.4 mph N/A   Overcast
1:21 PM 33.8 °F 27.0 °F 32.0 °F 93% 29.44 in 10.0 mi WNW 8.1 mph - N/A   Overcast
1:41 PM 32.0 °F 23.6 °F 30.2 °F 93% 29.45 in 2.5 mi WNW 10.4 mph 16.1 mph N/A Snow Light Snow
2:02 PM 32.0 °F 22.5 °F 30.2 °F 93% 29.46 in 7.0 mi NW 12.7 mph 19.6 mph N/A   Overcast
2:21 PM 32.0 °F 23.6 °F 30.2 °F 93% 29.47 in 10.0 mi WNW 10.4 mph - N/A   Overcast
2:41 PM 32.0 °F 23.0 °F 30.2 °F 93% 29.49 in 5.0 mi WNW 11.5 mph 18.4 mph N/A Snow Light Snow
3:02 PM 30.2 °F 20.8 °F 30.2 °F 100% 29.49 in 10.0 mi NW 11.5 mph 16.1 mph N/A   Overcast
3:21 PM 30.2 °F 21.9 °F 28.4 °F 93% 29.51 in 10.0 mi NW 9.2 mph - N/A   Overcast
3:41 PM 30.2 °F 21.3 °F 28.4 °F 93% 29.51 in 10.0 mi WNW 10.4 mph - N/A   Overcast
4:01 PM 30.2 °F 20.8 °F 28.4 °F 93% 29.53 in 7.0 mi WNW 11.5 mph 20.7 mph N/A   Overcast
4:21 PM 30.2 °F 20.2 °F 26.6 °F 86% 29.54 in 7.0 mi WNW 12.7 mph 21.9 mph N/A   Overcast
4:42 PM 30.2 °F 18.9 °F 26.6 °F 86% 29.56 in 5.0 mi WNW 16.1 mph 20.7 mph N/A Snow Light Snow
5:01 PM 28.4 °F 18.0 °F 26.6 °F 93% 29.57 in 10.0 mi WNW 12.7 mph 20.7 mph N/A   Overcast
5:21 PM 28.4 °F 16.6 °F 26.6 °F 93% 29.59 in 10.0 mi WNW 16.1 mph 24.2 mph N/A Snow Light Snow
5:42 PM 28.4 °F 17.0 °F 26.6 °F 93% 29.60 in 10.0 mi West 15.0 mph 20.7 mph N/A   Overcast
6:01 PM 28.4 °F 16.2 °F 24.8 °F 86% 29.61 in 10.0 mi WNW 17.3 mph 21.9 mph N/A   Overcast
6:21 PM 28.4 °F 17.0 °F 24.8 °F 86% 29.61 in 10.0 mi NW 15.0 mph 19.6 mph N/A Snow Light Snow
6:42 PM 26.6 °F 15.2 °F 24.8 °F 93% 29.62 in 7.0 mi NW 13.8 mph 18.4 mph N/A Snow Light Snow
7:01 PM 26.6 °F 14.7 °F 24.8 °F 93% 29.63 in 10.0 mi WNW 15.0 mph 19.6 mph N/A   Overcast
7:21 PM 28.4 °F 17.5 °F 24.8 °F 86% 29.65 in 10.0 mi WNW 13.8 mph 19.6 mph N/A   Overcast
7:42 PM 26.6 °F 14.7 °F 24.8 °F 93% 29.67 in 10.0 mi WNW 15.0 mph 21.9 mph N/A   Overcast
8:01 PM 26.6 °F 14.7 °F 23.0 °F 86% 29.68 in 10.0 mi WNW 15.0 mph 21.9 mph N/A   Overcast
8:21 PM 26.6 °F 14.7 °F 23.0 °F 86% 29.69 in 10.0 mi WNW 15.0 mph 21.9 mph N/A Snow Light Snow
8:42 PM 26.6 °F 15.2 °F 23.0 °F 86% 29.70 in 10.0 mi WNW 13.8 mph 23.0 mph N/A   Overcast
9:01 PM 26.6 °F 14.3 °F 21.2 °F 80% 29.70 in 10.0 mi WNW 16.1 mph 21.9 mph N/A   Overcast
9:21 PM 26.6 °F 14.3 °F 23.0 °F 86% 29.71 in 10.0 mi WNW 16.1 mph 20.7 mph N/A   Overcast
9:42 PM 26.6 °F 14.7 °F 23.0 °F 86% 29.71 in 10.0 mi WNW 15.0 mph 21.9 mph N/A   Overcast
10:01 PM 26.6 °F 14.3 °F 21.2 °F 80% 29.72 in 10.0 mi West 16.1 mph 20.7 mph N/A Snow Light Snow
10:22 PM 24.8 °F 11.9 °F 21.2 °F 86% 29.73 in 10.0 mi West 16.1 mph 20.7 mph N/A Snow Light Snow
10:42 PM 24.8 °F 11.9 °F 21.2 °F 86% 29.74 in 10.0 mi WNW 16.1 mph 20.7 mph N/A Snow Light Snow
11:01 PM 24.8 °F 12.9 °F 21.2 °F 86% 29.75 in 10.0 mi WNW 13.8 mph 27.6 mph N/A Snow Light Snow
11:22 PM 24.8 °F 11.9 °F 21.2 °F 86% 29.76 in 10.0 mi WNW 16.1 mph - N/A   Overcast
11:42 PM 24.8 °F 12.4 °F 21.2 °F 86% 29.77 in 10.0 mi West 15.0 mph 19.6 mph N/A   Overcast